[[{"header":{"parameterUnit":"m.s-1","parameterCategory":1,"la1":30.2991,"la2":30.254,"lo1":-89.0895,"lo2":-89.0444,"dy":0.0017,"dx":0.0017,"nx":28,"ny":28,"refTime":"2024-10-15T03:00:00:Z","depth":0,"parameterNumber":2,"parameterNumberName":"U-component_of_WINDS"},"data":[0,0,0,0,0,0,0,0,0,0,0,0,0,0,0,0,0,0,0,0,0,0,0,0,0,0,0,0,0,0,0,0,0,0,0,0,0,0,0,0,0,0,0,0,0,0,0,0,0,0,0,0,0,0,0,0,0,0,-4.4247,-4.4247,0,-4.4302,-4.4303,-4.4304,-4.4191,-4.4187,-4.4184,-4.418,-4.4237,-4.4242,-4.4247,0,0,0,0,0,0,0,0,0,0,0,0,0,-4.404,-4.4045,-4.4246,-4.4247,-4.4248,-4.4302,-4.4303,-4.4304,-4.4192,-4.4187,-4.4183,-4.4179,-4.4236,-4.4241,-4.4247,0,0,0,0,0,0,0,0,0,0,0,0,0,-4.4117,-4.4046,-4.4246,-4.4199,-4.4195,-4.4302,-4.4303,-4.4304,-4.4193,-4.4187,-4.4182,-4.4177,-4.4234,-4.4241,-4.4248,-4.4404,0,0,-4.4271,-4.4274,0,0,0,0,0,0,0,0,-4.4112,-4.4124,-4.4205,-4.4202,-4.4198,-4.4234,-4.4251,-4.4338,-4.4194,-4.4194,-4.418,-4.4174,-4.4241,-4.4247,-4.427,-4.4407,-4.441,-4.4271,-4.4276,-4.4279,-4.4281,0,0,0,0,0,0,0,-4.4107,-4.4121,-4.4268,-4.4206,-4.4202,-4.4174,-4.4178,-4.4267,-4.4247,-4.4193,-4.4185,-4.4193,-4.4238,-4.4263,-4.427,-4.441,-4.4271,-4.4278,-4.4282,-4.4285,-4.4678,-4.4683,0,0,0,0,0,0,-4.4108,-4.4118,-4.4267,-4.427,-4.4141,-4.4182,-4.4187,-4.4228,-4.4246,-4.4243,-4.4198,-4.4188,-4.4253,-4.4262,-4.4272,-4.4456,-4.4279,-4.4286,-4.429,-4.4672,-4.4679,-4.4685,0,0,0,0,0,0,-4.4104,-4.4123,-4.4264,-4.4192,-4.4208,-4.4191,-4.4238,-4.4232,-4.4257,-4.425,-4.4245,-4.4228,-4.4249,-4.4261,-4.4372,-4.4456,-4.4289,-4.4296,-4.4665,-4.4674,-4.4682,-4.4826,0,0,0,0,0,0,-4.4099,-4.4122,-4.4182,-4.4194,-4.4212,-4.4365,-4.4243,-4.4237,-4.427,-4.4258,-4.4276,-4.4274,-4.4245,-4.4362,-4.438,-4.4464,-4.4302,-4.4657,-4.4669,-4.4679,-4.4814,-4.4839,-4.486,0,0,0,0,0,-4.4092,-4.422,-4.4186,-4.4204,-4.4287,-4.437,-4.438,-4.4345,-4.4278,-4.4337,-4.4332,-4.4274,-4.4444,-4.4374,-4.4393,-4.4481,-4.4652,-4.4666,-4.4679,-4.4803,-4.4834,-4.486,0,0,0,0,0,0,-4.4219,-4.4221,-4.4183,-4.4319,-4.4345,-4.4351,-4.4426,-4.4379,-4.4425,-4.4411,-4.4365,-4.437,-4.449,-4.4496,-4.4418,-4.4632,-4.4536,-4.4554,-4.4625,-4.4654,-4.4676,-4.4673,-4.4308,0,0,0,0,0,-4.4262,-4.433,-4.4328,-4.4449,-4.4464,-4.4443,-4.4478,-4.4448,-4.4473,-4.4484,-4.4487,-4.4514,-4.4573,-4.4613,-4.4667,-4.4813,-4.4815,-4.4883,-4.4906,-4.4925,-4.4942,-4.5019,-4.5048,-4.473,-4.473,-4.4729,0,0,-4.4354,-4.4363,-4.4409,-4.4474,-4.4491,-4.4563,-4.4453,-4.4533,-4.4585,-4.4496,-4.4601,-4.4604,-4.4631,-4.476,-4.4817,-4.4768,-4.503,-4.4942,-4.4957,-4.4964,-4.5036,-4.5066,-4.5093,-4.4739,-4.4737,-4.4736,0,0,-4.4556,-4.457,-4.4672,-4.4691,-4.4718,-4.4703,-4.4727,-4.474,-4.4739,-4.4843,-4.4778,-4.4838,-4.4942,-4.4963,-4.4988,-4.5197,-4.5144,-4.5215,-4.5338,-4.5413,-4.5439,-4.5461,-4.5536,-4.5563,-4.5231,-4.5232,-4.5232,0,-4.4667,-4.4772,-4.473,-4.4815,-4.4845,-4.4767,-4.4869,-4.489,-4.4933,-4.4956,-4.4901,-4.5028,-4.504,-4.5173,-4.5224,-4.5246,-4.5272,-4.5214,-4.5438,-4.546,-4.548,-4.5551,-4.5579,-4.524,-4.5239,-4.5239,-4.5238,0,-4.4906,-4.4979,-4.5058,-4.5102,-4.5141,-4.5234,-4.5206,-4.525,-4.5216,-4.5207,-4.5314,-4.5325,-4.538,-4.5409,-4.5377,-4.5537,-4.5507,-4.5446,-4.5349,-4.552,-4.5586,-4.5612,-4.5253,-4.525,-4.5247,-4.5245,0,0,-4.5193,-4.5211,-4.5241,-4.5259,-4.5282,-4.5338,-4.5427,-4.5481,-4.552,-4.5551,-4.5625,-4.5713,-4.5656,-4.5684,-4.5653,-4.572,-4.5885,-4.565,-4.565,-4.5694,-4.6062,-4.6109,-4.6141,-4.5849,-4.5854,-4.5858,-4.606,0,-4.5394,-4.5548,-4.5512,-4.5664,-4.5731,-4.5657,-4.5734,-4.5756,-4.5749,-4.5804,-4.5795,-4.5859,-4.5779,-4.5796,-4.5858,-4.5852,-4.5958,-4.5836,-4.5917,-4.5921,-4.5915,-4.6175,-4.6225,-4.6415,-4.6085,-4.609,-4.6093,0,-4.5651,-4.5692,-4.5851,-4.5862,-4.5889,-4.5959,-4.6005,-4.6059,-4.6082,-4.6072,-4.6102,-4.6058,-4.6145,-4.6045,-4.6164,-4.6082,-4.6113,-4.6114,-4.6121,-4.6128,-4.6019,-4.6191,-4.6475,-4.6504,-4.6133,-4.613,-4.6127,0,-4.5845,-4.594,-4.6047,-4.6065,-4.6081,-4.6132,-4.6141,-4.6158,-4.6192,-4.6232,-4.6253,-4.6303,-4.633,-4.6368,-4.6338,-4.6269,-4.6462,-4.636,-4.6456,-4.6457,-4.6502,-4.65,-4.6796,-4.652,-4.6519,-4.6519,-4.6518,0,-4.6075,-4.6175,-4.6135,-4.6201,-4.631,-4.6267,-4.6377,-4.6376,-4.6392,-4.6456,-4.6394,-4.6456,-4.6411,-4.6469,-4.6445,-4.6547,-4.656,-4.6554,-4.6547,-4.656,-4.6561,-4.6581,-4.6567,-4.6526,-4.6525,-4.6523,-4.6522,0,-4.6312,-4.6289,-4.6401,-4.6406,-4.6409,-4.649,-4.6493,-4.6554,-4.6541,-4.6623,-4.664,-4.662,-4.6684,-4.6657,-4.6725,-4.6709,-4.684,-4.6815,-4.6833,-4.6827,-4.6925,-4.6916,-4.7245,-4.7286,-4.6982,-4.6985,-4.6988,0,-4.6461,-4.6536,-4.6549,-4.6588,-4.6601,-4.6664,-4.6698,-4.6658,-4.6696,-4.6727,-4.6784,-4.6842,-4.6887,-4.6993,-4.6984,-4.7035,-4.7011,-4.7123,-4.7019,-4.703,-4.7014,-4.7011,-4.7018,-4.7145,-4.7148,-4.7151,-4.7153,0,-4.6729,-4.6713,-4.6765,-4.6814,-4.6856,-4.6892,-4.6923,-4.6958,-4.6918,-4.6964,-4.7029,-4.7064,-4.7132,-4.7191,-4.7236,-4.7243,-4.7193,-4.7186,-4.7211,-4.7227,-4.7234,-4.7232,-4.6891,-4.7179,-4.7176,-4.7175,-4.7173,-4.7172,-4.6927,-4.699,-4.7009,-4.7068,-4.7087,-4.7116,-4.7174,-4.7168,-4.7221,-4.7274,-4.7246,-4.7322,-4.7341,-4.7396,-4.741,-4.7468,-4.7424,-4.746,-4.747,-4.748,-4.7493,-4.7224,-4.7476,-4.7475,-4.7474,-4.7474,-4.7473,0,-4.7192,-4.72,-4.7255,-4.7299,-4.7346,-4.7293,-4.7323,-4.7366,-4.7433,-4.7456,-4.7501,-4.7575,-4.7631,-4.7626,-4.7677,-4.7724,-4.7702,-4.7739,-4.7736,-4.7739,-4.7529,-4.7503,-4.7757,-4.7757,-4.7756,-4.7756,-4.7756,-4.7756,-4.7335,-4.7439,-4.7426,-4.7538,-4.7544,-4.7618,-4.764,-4.7667,-4.7684,-4.7769,-4.7816,-4.7812,-4.7823,-4.7874,-4.7923,-4.792,-4.7942,-4.7989,-4.7977,-4.7782,-4.7754,-4.7727,-4.7702,-4.7994,-4.7994,-4.8182,-4.8184,-4.8185]},{"header":{"parameterUnit":"m.s-1","parameterCategory":1,"la1":30.2991,"la2":30.254,"lo1":-89.0895,"lo2":-89.0444,"dy":0.0017,"dx":0.0017,"nx":28,"ny":28,"refTime":"2024-10-15T03:00:00:Z","depth":0,"parameterNumber":3,"parameterNumberName":"V-component_of_WINDS"},"data":[0,0,0,0,0,0,0,0,0,0,0,0,0,0,0,0,0,0,0,0,0,0,0,0,0,0,0,0,0,0,0,0,0,0,0,0,0,0,0,0,0,0,0,0,0,0,0,0,0,0,0,0,0,0,0,0,0,0,-8.6252,-8.6253,0,-8.6351,-8.6352,-8.6353,-8.6229,-8.6224,-8.622,-8.6215,-8.631,-8.6317,-8.6323,0,0,0,0,0,0,0,0,0,0,0,0,0,-8.5949,-8.5955,-8.6252,-8.6253,-8.6255,-8.6351,-8.6352,-8.6353,-8.6229,-8.6224,-8.6218,-8.6213,-8.6308,-8.6316,-8.6324,0,0,0,0,0,0,0,0,0,0,0,0,0,-8.6067,-8.5957,-8.6252,-8.6204,-8.6201,-8.635,-8.6352,-8.6354,-8.6231,-8.6224,-8.6217,-8.6211,-8.6305,-8.6315,-8.6325,-8.6523,0,0,-8.6356,-8.636,0,0,0,0,0,0,0,0,-8.6061,-8.6078,-8.621,-8.6208,-8.6205,-8.6271,-8.628,-8.641,-8.6232,-8.6219,-8.6215,-8.6207,-8.6302,-8.6312,-8.6345,-8.6528,-8.6532,-8.6357,-8.6363,-8.6367,-8.637,0,0,0,0,0,0,0,-8.6053,-8.6073,-8.6291,-8.6212,-8.6209,-8.6176,-8.6185,-8.6304,-8.6297,-8.622,-8.6211,-8.6225,-8.6299,-8.6336,-8.6347,-8.6533,-8.6357,-8.6366,-8.6372,-8.6376,-8.6881,-8.6888,0,0,0,0,0,0,-8.6051,-8.6067,-8.6288,-8.6294,-8.6115,-8.6187,-8.6197,-8.6256,-8.6296,-8.6295,-8.6231,-8.6219,-8.6322,-8.6335,-8.6349,-8.6583,-8.6367,-8.6377,-8.6383,-8.6874,-8.6883,-8.6891,0,0,0,0,0,0,-8.6045,-8.6072,-8.6284,-8.6178,-8.6203,-8.6199,-8.6266,-8.6262,-8.6298,-8.6304,-8.6301,-8.627,-8.6317,-8.6335,-8.6481,-8.6585,-8.6381,-8.6391,-8.6865,-8.6877,-8.6887,-8.7054,0,0,0,0,0,0,-8.6037,-8.607,-8.6148,-8.6181,-8.6209,-8.6417,-8.6273,-8.6269,-8.6317,-8.6302,-8.634,-8.634,-8.6313,-8.6467,-8.6491,-8.6595,-8.6398,-8.6856,-8.6871,-8.6884,-8.7039,-8.7069,-8.7095,0,0,0,0,0,-8.6026,-8.619,-8.6152,-8.6179,-8.6306,-8.6423,-8.6438,-8.6406,-8.6326,-8.6402,-8.6405,-8.6338,-8.657,-8.6483,-8.6509,-8.6618,-8.6849,-8.6866,-8.6883,-8.7026,-8.7063,-8.7094,0,0,0,0,0,0,-8.6166,-8.6193,-8.6152,-8.6331,-8.6376,-8.6402,-8.6497,-8.6447,-8.6513,-8.6497,-8.6452,-8.6462,-8.6617,-8.6632,-8.6535,-8.6811,-8.6696,-8.6718,-8.6796,-8.6831,-8.6858,-8.6851,-8.6407,0,0,0,0,0,-8.6218,-8.6314,-8.6331,-8.6487,-8.6512,-8.6501,-8.6551,-8.6522,-8.6566,-8.6583,-8.6597,-8.664,-8.6722,-8.6777,-8.6853,-8.704,-8.7045,-8.7127,-8.7155,-8.7178,-8.7198,-8.7297,-8.7333,-8.6945,-8.6945,-8.6945,0,0,-8.6326,-8.6353,-8.6415,-8.6516,-8.6547,-8.6644,-8.6518,-8.6626,-8.6697,-8.6599,-8.6738,-8.675,-8.6795,-8.6962,-8.7036,-8.6979,-8.7306,-8.7199,-8.7218,-8.7225,-8.7317,-8.7354,-8.7387,-8.6957,-8.6955,-8.6953,0,0,-8.6573,-8.6603,-8.6736,-8.677,-8.682,-8.6811,-8.6844,-8.6877,-8.6882,-8.7021,-8.6949,-8.7032,-8.7174,-8.7209,-8.7245,-8.7504,-8.7444,-8.7529,-8.7675,-8.7772,-8.7802,-8.7829,-8.792,-8.7954,-8.7549,-8.755,-8.755,0,-8.67,-8.6846,-8.681,-8.6925,-8.697,-8.6888,-8.7021,-8.7054,-8.7126,-8.7158,-8.7093,-8.727,-8.7294,-8.7467,-8.7531,-8.7563,-8.7596,-8.7525,-8.7801,-8.7828,-8.7852,-8.7938,-8.7973,-8.756,-8.7558,-8.7557,-8.7556,0,-8.6999,-8.7101,-8.7203,-8.7276,-8.7332,-8.7455,-8.7436,-8.7497,-8.7463,-8.7461,-8.7603,-8.7629,-8.7708,-8.7747,-8.7715,-8.7916,-8.7879,-8.7809,-8.7692,-8.79,-8.798,-8.8013,-8.7574,-8.757,-8.7567,-8.7565,0,0,-8.7337,-8.7389,-8.7427,-8.7458,-8.7506,-8.7583,-8.7701,-8.7781,-8.7833,-8.7884,-8.7981,-8.8103,-8.8038,-8.808,-8.805,-8.8135,-8.8336,-8.8053,-8.8054,-8.8104,-8.8558,-8.861,-8.865,-8.8297,-8.8303,-8.8308,-8.8554,0,-8.7583,-8.779,-8.7761,-8.7959,-8.8052,-8.7974,-8.8077,-8.8116,-8.8117,-8.8193,-8.8192,-8.828,-8.8188,-8.8212,-8.8293,-8.8295,-8.8427,-8.8277,-8.8384,-8.8389,-8.8376,-8.8692,-8.8748,-8.8979,-8.8585,-8.859,-8.8594,0,-8.7898,-8.7963,-8.8172,-8.8204,-8.8242,-8.8335,-8.8405,-8.848,-8.8522,-8.8516,-8.8562,-8.8517,-8.8632,-8.8514,-8.8671,-8.857,-8.8611,-8.8619,-8.8627,-8.8635,-8.8504,-8.8708,-8.9051,-8.9086,-8.8644,-8.864,-8.8636,0,-8.8123,-8.8262,-8.8404,-8.8434,-8.8476,-8.8543,-8.8563,-8.8598,-8.8647,-8.8707,-8.8738,-8.881,-8.885,-8.8905,-8.888,-8.8796,-8.9041,-8.8921,-8.9038,-8.9039,-8.9093,-8.909,-8.9447,-8.9121,-8.9121,-8.912,-8.9119,0,-8.8401,-8.8531,-8.8506,-8.8593,-8.8736,-8.87,-8.8841,-8.8851,-8.8883,-8.8969,-8.8906,-8.8987,-8.8949,-8.9027,-8.9007,-8.9139,-8.9158,-8.9155,-8.9148,-8.916,-8.9161,-8.9187,-8.917,-8.9129,-8.9127,-8.9125,-8.9124,0,-8.8676,-8.8665,-8.8815,-8.8842,-8.8852,-8.8956,-8.8978,-8.9059,-8.9054,-8.9164,-8.9188,-8.918,-8.9269,-8.9249,-8.9345,-8.9332,-8.9498,-8.9471,-8.9485,-8.9478,-8.9596,-8.9585,-8.9983,-9.0032,-8.9675,-8.9678,-8.9681,0,-8.8854,-8.8953,-8.8992,-8.9046,-8.9072,-8.916,-8.921,-8.9177,-8.9232,-8.9286,-8.936,-8.9443,-8.9508,-8.9653,-8.9655,-8.9728,-8.9702,-8.9836,-8.9712,-8.9721,-8.9703,-8.9697,-8.9706,-8.9861,-8.9865,-8.9868,-8.9871,0,-8.9171,-8.916,-8.9237,-8.9312,-8.9374,-8.943,-8.948,-8.9527,-8.9498,-8.9562,-8.9653,-8.9704,-8.9803,-8.9886,-8.9953,-8.997,-8.9916,-8.991,-8.994,-8.9954,-8.9958,-8.9957,-8.9551,-8.9901,-8.9898,-8.9895,-8.9894,-8.9893,-8.9403,-8.9486,-8.9527,-8.9613,-8.9648,-8.9696,-8.9773,-8.9778,-8.9855,-8.9934,-8.9909,-9.0013,-9.0049,-9.0135,-9.0161,-9.0239,-9.0188,-9.0233,-9.0244,-9.0256,-9.027,-8.9946,-9.0251,-9.025,-9.0249,-9.0249,-9.0248,0,-8.9715,-8.9738,-8.9818,-8.9891,-8.9958,-8.9903,-8.9955,-9.0014,-9.0107,-9.0147,-9.0213,-9.0316,-9.0396,-9.0404,-9.0479,-9.054,-9.0516,-9.056,-9.0555,-9.056,-9.0312,-9.0277,-9.0578,-9.0578,-9.0578,-9.0578,-9.0578,-9.0578,-8.9886,-9.0025,-9.0019,-9.0172,-9.0192,-9.0295,-9.033,-9.0373,-9.0405,-9.0524,-9.0591,-9.0596,-9.0623,-9.0699,-9.0769,-9.0768,-9.0798,-9.0852,-9.0843,-9.0611,-9.0578,-9.0546,-9.0514,-9.0859,-9.086,-9.1084,-9.1086,-9.1088]}]]